Location: ????????
(54.9045°N, 39.1041°E)
Time: 07:27:01
(UTC+00:00)

GP-B - Visible Passes

Search period start: 13 July 2024 00:00
Search period end: 23 July 2024 00:00
Orbit: 625 x 628 km, 89.8° (Epoch: 12 July)

Date Brightness Start Highest point End Pass type
(mag) Time Alt. Az. Time Alt. Az. Time Alt. Az.
13 Jul 4.3 18:44:55 10° N 18:49:07 43° W 18:53:17 10° SSW visible
14 Jul 5.1 19:04:42 10° NNW 19:08:27 28° WNW 19:12:12 10° SW visible
15 Jul 5.7 19:24:40 10° NNW 19:27:43 19° WNW 19:30:46 10° WSW visible
16 Jul 6.0 19:45:08 10° NW 19:46:54 12° WNW 19:48:40 10° W visible
18 Jul 5.1 18:45:28 10° NNW 18:49:18 29° WNW 18:53:07 10° SW visible
19 Jul 5.8 19:05:24 10° NNW 19:08:34 20° WNW 19:11:43 10° WSW visible
20 Jul 6.0 19:25:44 10° NW 19:27:45 13° WNW 19:29:46 10° W visible
22 Jul 5.1 18:26:12 10° NNW 18:30:06 31° WNW 18:33:59 10° SW visible
